Regional Weather Roundup
Issued by NWS

Current Version | Previous Version | Text Only | Print | Product List | Glossary On
Versions: 1 2 3 4 5 6 7 8 9 10 11 12 13 14 15 16 17 18 19 20 21 22 23 24 25 26 27 28 29 30 31 32 33 34 35 36 37 38 39 40 41 42 43 44 45 46 47 48 49 50
000
ASCA42 TJSJ 160811
RWRPR
PUERTO RICO/U.S. VIRGIN ISLANDS HOURLY WEATHER ROUNDUP
NATIONAL WEATHER SERVICE SAN JUAN PR
400 AM AST WED APR 16 2014

PRZ001-004-160900-
PUERTO RICO

CITY           SKY/WX    TMP DP  RH WIND       PRES   REMARKS
SAN JUAN LMM   PTCLDY    77  70  78 CALM      29.94F
AGUADILLA      CLEAR     72  68  88 E5        29.95F
CEIBA          CLEAR     77  70  78 E5        29.96S
$$

PRZ006-007-160900-
U.S. VIRGIN ISLANDS

CITY           SKY/WX    TMP DP  RH WIND       PRES   REMARKS
CHARLOTTE AMA  CLEAR     75  72  88 CALM      29.93S
CHRISTIANSTED  MOCLDY    73  70  88 CALM      29.94S
$$

HOURLY WEATHER ROUNDUP FOR THE NEWS MEDIA

CITY           SKY/WX    TMP DP  RH WIND       PRES   REMARKS
MIAMI          PTCLDY    75  73  93 W3        29.93F
ORLANDO        MOCLDY    56  48  74 N10       30.02R
NEW YORK       CLOUDY    36  25  64 NW22G29   30.05R WCI  25
NEWARK         CLOUDY    34  23  64 NW23G31   30.07R WCI  22
CHICAGO        CLEAR     28  18  66 S6        30.23R WCI  22
HARTFORD       RAIN      38  35  89 NW10      29.86R WCI  31
BOSTON         LGT SNOW  36  32  87 NW13G20   29.84F FOG     WCI  27
DALLAS         PTCLDY    50  29  44 SE13      30.10F
PHILADELPHIA   PTCLDY    34  16  47 N22G36    30.14R WCI  22



USA.gov is the U.S. government's official web portal to all federal, state and local government web resources and services.